Location: Innerarity Island Observatory
(30.3139°N, 87.4867°W)
Time: 08:38:14
(UTC-05:00)

Amateur Radio Satellites - All Passes

Search period start: 27 May 2017 08:08
Search period end: 28 May 2017 08:08
Location: Innerarity Island Observatory, 30.3139°N, 87.4867°W

Satellite Date Start Highest point End Downlink Frequencies (MHz)
Time Altitude Azimuth
CUTE 1.7 + AOD 2 27 May 08:18:11 08:22:26 78° 281° (W) 08:26:38 437.475
SRMSAT 27 May 08:18:32 08:23:37 29° 184° (S) 08:28:41 437.500
CUTE-I 27 May 08:19:49 08:23:31 19° 292° (WNW) 08:27:12 437.470
SO-50 27 May 08:21:57 08:26:14 43° 247° (WSW) 08:30:32 436.795
M-CUBED/EXP-1 PRIME 27 May 08:28:42 08:33:04 85° 76° (ENE) 08:37:09 437.505
AAUSAT CUBESAT 2 27 May 08:28:47 08:32:32 33° 98° (E) 08:36:15 437.432
AO-73 27 May 08:33:56 08:37:10 19° 95° (E) 08:40:23 145.935
ZACube-1 27 May 08:47:36 08:51:41 31° 98° (E) 08:55:43 437.345
CUBEBUG 2 27 May 09:02:40 09:07:11 52° 285° (WNW) 09:11:46 437.445
NO-84 27 May 09:02:48 09:06:13 22° 318° (NW) 09:09:36 435.350 FM
SEEDS 27 May 09:06:37 09:10:18 30° 287° (WNW) 09:13:59 437.485
UWE-3 27 May 09:11:31 09:16:07 71° 283° (WNW) 09:20:45 435.000/436.395/437.385
XW-2A 27 May 09:19:20 09:20:04 11° 290° (WNW) 09:20:48 145.665 - 145.685
TIGRISAT 27 May 09:38:29 09:42:07 28° 72° (ENE) 09:45:48 435.000
FO-29 27 May 09:39:37 09:44:19 36° 72° (ENE) 09:49:03 435.910
Oscar 11 27 May 09:41:28 09:45:49 83° 285° (WNW) 09:50:09 .
HO-68 27 May 09:48:47 09:53:55 22° 297° (WNW) 09:59:04 435.675
RS-15 27 May 09:57:46 10:07:25 26° 43° (NE) 10:16:39 29.354- 29.394
PRISM 27 May 10:03:56 10:08:04 85° 255° (WSW) 10:12:13 437.425
AAUSAT CUBESAT 2 27 May 10:05:34 10:07:38 14° 291° (WNW) 10:09:42 437.432
SRMSAT 27 May 10:08:05 10:12:16 20° 194° (SSW) 10:16:26 437.500
EO-88 27 May 10:09:03 10:12:20 31° 98° (E) 10:15:36 145.990 - 145.960
AO-73 27 May 10:09:22 10:13:20 30° 287° (WNW) 10:17:19 145.935
UNISAT 6 27 May 10:09:44 10:13:58 80° 76° (ENE) 10:18:17 437.425
DELFI C3 27 May 10:16:06 10:20:00 61° 101° (E) 10:23:50 145.870
ZACube-1 27 May 10:24:28 10:27:40 19° 290° (WNW) 10:30:52 437.345
LO-87 27 May 10:51:49 10:52:44 11° 94° (E) 10:53:39 145.935 - 145.965
AIST 2D 27 May 11:12:30 11:15:49 42° 76° (ENE) 11:19:11 435.315
NANOSAT C BR1 27 May 11:14:59 11:18:02 20° 71° (ENE) 11:21:07 145.865
TIGRISAT 27 May 11:16:02 11:18:47 17° 265° (W) 11:21:34 435.000
POLYITAN 1 27 May 11:19:50 11:23:17 26° 72° (ENE) 11:26:47 437.675
DUCHIFAT 1 27 May 11:24:57 11:28:17 24° 72° (ENE) 11:31:36 145.980
FO-29 27 May 11:26:02 11:29:31 18° 265° (W) 11:33:01 435.910
QB50P2 27 May 11:28:07 11:31:57 36° 74° (ENE) 11:35:49 145.880/145.840
ESTCUBE 1 27 May 11:39:55 11:43:51 29° 98° (E) 11:47:45 437.505/2401.250
EO-88 27 May 11:44:24 11:45:39 11° 290° (WNW) 11:46:54 145.990 - 145.960
YUBILEINY 27 May 11:57:23 12:05:35 41° 78° (ENE) 12:13:42 435.215
EO-79 27 May 12:04:35 12:08:46 81° 259° (W) 12:12:57 145.935-145.965
RS-15 27 May 12:09:16 12:21:22 84° 246° (WSW) 12:32:46 29.354- 29.394
SPROUT 27 May 12:20:36 12:23:43 20° 96° (E) 12:26:51 437.525
LO-87 27 May 12:23:05 12:26:11 29° 286° (WNW) 12:29:18 145.935 - 145.965
VELOX 1 27 May 12:32:14 12:35:56 27° 97° (E) 12:39:38 145.980
NANOSAT C BR1 27 May 12:50:14 12:53:34 23° 263° (W) 12:56:55 145.865
Gurwin Techsat 1B 27 May 12:55:42 12:59:05 17° 67° (ENE) 13:02:29 435.225
POLYITAN 1 27 May 12:56:08 12:59:00 18° 264° (W) 13:01:52 437.675
DUCHIFAT 1 27 May 13:00:49 13:03:49 19° 264° (W) 13:06:51 145.980
O/OREOS (USA 219) 27 May 13:04:22 13:06:21 13° 61° (ENE) 13:08:20 437.305
DX 1 27 May 13:05:22 13:08:37 20° 97° (E) 13:11:51 434.975-435.025
QB50P2 27 May 13:05:58 13:07:49 13° 266° (W) 13:09:40 145.880/145.840
Oscar 19 27 May 13:09:22 13:14:13 42° 73° (ENE) 13:19:06 437.125/150
BUGSAT 1 27 May 13:14:28 13:18:19 47° 260° (W) 13:22:11 437.445
ESTCUBE 1 27 May 13:17:16 13:20:23 19° 290° (WNW) 13:23:29 437.505/2401.250
50 SAT 27 May 13:30:04 13:33:28 79° 100° (E) 13:36:50 437.505
YUBILEINY 27 May 13:54:23 14:02:05 35° 273° (W) 14:09:47 435.215
SPROUT 27 May 13:56:01 13:59:31 25° 288° (WNW) 14:03:01 437.525
AO-85 27 May 13:59:03 14:03:11 81° 65° (ENE) 14:07:36 145.980
VELOX 1 27 May 14:09:01 14:12:10 20° 290° (WNW) 14:15:18 145.980
AO-7 27 May 14:09:46 14:15:41 22° 60° (ENE) 14:21:37 .
ITAMSAT 1 27 May 14:15:57 14:18:09 13° 65° (ENE) 14:20:20 435.822/435.867
BEESAT 2 27 May 14:17:04 14:18:45 12° 52° (NE) 14:20:26 435.950
RS-15 27 May 14:26:13 14:31:51 15° 262° (W) 14:37:25 29.354- 29.394
UKube-1 27 May 14:31:00 14:35:08 48° 286° (WNW) 14:39:16 .
BEESAT 3 27 May 14:33:17 14:37:12 55° 61° (ENE) 14:41:05 437.485
Gurwin Techsat 1B 27 May 14:33:33 14:38:37 45° 260° (W) 14:43:41 435.225
DX 1 27 May 14:41:10 14:44:41 25° 289° (WNW) 14:48:11 434.975-435.025
O/OREOS (USA 219) 27 May 14:41:40 14:45:57 45° 255° (WSW) 14:50:12 437.305
Oscar 19 27 May 14:50:16 14:53:38 17° 265° (W) 14:57:00 437.125/150
ITUPSAT 1 27 May 15:29:13 15:33:52 47° 100° (E) 15:38:29 437.325
MOZHAYETS 4 27 May 15:35:55 15:40:01 30° 98° (E) 15:44:04
NO-84 27 May 15:41:41 15:44:26 20° 41° (NE) 15:47:00 435.350 FM
ITAMSAT 1 27 May 15:51:57 15:57:01 60° 258° (WSW) 16:02:08 435.822/435.867
BEESAT 2 27 May 15:52:51 15:56:43 45° 247° (WSW) 16:00:31 435.950
AO-7 27 May 15:59:28 16:07:41 68° 255° (WSW) 16:15:57 .
BEESAT 27 May 16:01:59 16:06:45 70° 284° (WNW) 16:11:30 436.000
KKS-1 27 May 16:23:52 16:25:27 12° 94° (E) 16:27:01 437.445
CUBESAT XI-V 27 May 16:25:32 16:28:30 17° 95° (E) 16:31:26 437.345
ITUPSAT 1 27 May 17:08:48 17:11:13 14° 293° (WNW) 17:13:38 437.325
MOZHAYETS 4 27 May 17:13:36 17:16:54 19° 290° (WNW) 17:20:10
NO-84 27 May 17:19:06 17:21:54 23° 238° (WSW) 17:24:32 435.350 FM
DOVE 4 27 May 17:36:12 17:40:43 47° 75° (ENE) 17:44:59 437.250
XW-2D 27 May 17:42:11 17:45:18 25° 73° (ENE) 17:48:28 145.860 - 145.880
XW-2B 27 May 17:49:55 17:53:16 30° 74° (ENE) 17:56:38 145.730 - 145.750
CUTE-I 27 May 17:55:02 17:59:55 38° 72° (ENE) 18:04:47 437.470
NUDT-PHONESAT 27 May 17:57:26 18:00:37 28° 74° (ENE) 18:03:51 437.300
KKS-1 27 May 17:57:54 18:02:07 44° 286° (WNW) 18:06:20 437.445
XW-2F 27 May 18:01:26 18:05:01 42° 75° (ENE) 18:08:37 145.980 - 146.000
CUBESAT XI-V 27 May 18:01:43 18:05:52 34° 287° (WNW) 18:10:00 437.345
XW-2C 27 May 18:03:17 18:06:56 48° 76° (ENE) 18:10:37 145.795 - 145.815
KAITUO 1B 27 May 18:07:09 18:10:41 40° 75° (ENE) 18:14:14 145.475/437.950
PCSat 27 May 18:22:00 18:27:08 45° 110° (ESE) 18:32:17 145.827
HO-68 27 May 18:23:18 18:28:47 24° 64° (ENE) 18:34:18 435.675
STARS 27 May 18:25:35 18:29:51 53° 286° (WNW) 18:34:08 437.465
ISS 27 May 18:25:38 18:27:18 13° 126° (SE) 18:28:59 437.550
LilacSat-2 27 May 18:42:45 18:46:22 41° 261° (W) 18:50:01 437.200
CUTE 1.7 + AOD 2 27 May 19:05:00 19:08:50 33° 73° (ENE) 19:12:42 437.475
AAUSAT CUBESAT 2 27 May 19:15:28 19:16:45 11° 68° (ENE) 19:18:02 437.432
DOVE 4 27 May 19:16:58 19:18:28 11° 265° (W) 19:19:57 437.250
XW-2D 27 May 19:17:12 19:19:26 15° 265° (W) 19:21:41 145.860 - 145.880
Tancredo 1 27 May 19:17:28 19:20:30 63° 316° (NW) 19:23:33 437.200
XW-2B 27 May 19:25:54 19:27:28 12° 266° (W) 19:29:02 145.730 - 145.750
NUDT-PHONESAT 27 May 19:32:56 19:34:31 12° 266° (W) 19:36:06 437.300
CUTE-I 27 May 19:36:14 19:40:00 20° 264° (W) 19:43:45 437.470
ZACube-1 27 May 19:40:13 19:41:30 11° 68° (ENE) 19:42:47 437.345
XW-2A 27 May 19:42:16 19:45:36 83° 259° (W) 19:48:58 145.665 - 145.685
SEEDS 27 May 19:51:30 19:55:44 81° 78° (ENE) 20:00:00 437.485
STRAND 1 27 May 19:51:36 19:56:35 48° 100° (E) 20:01:32 437.568
CUBEBUG 2 27 May 19:54:57 19:59:02 61° 76° (ENE) 20:03:10 437.445
ISS 27 May 20:00:27 20:03:31 35° 318° (NW) 20:06:35 437.550
UWE-3 27 May 20:02:52 20:06:47 42° 74° (ENE) 20:10:47 435.000/436.395/437.385
PCSat 27 May 20:06:51 20:10:41 19° 304° (NW) 20:14:34 145.827
HO-68 27 May 20:09:06 20:16:01 52° 259° (WSW) 20:23:01 435.675
Oscar 11 27 May 20:30:27 20:34:23 34° 74° (ENE) 20:38:20 .
CUTE 1.7 + AOD 2 27 May 20:42:19 20:44:41 15° 266° (W) 20:47:04 437.475
AAUSAT CUBESAT 2 27 May 20:47:46 20:51:45 43° 261° (W) 20:55:45 437.432
SO-50 27 May 20:51:40 20:54:42 17° 109° (ESE) 20:57:42 436.795
DELFI C3 27 May 20:56:56 20:59:24 16° 71° (ENE) 21:01:53 145.870
AO-73 27 May 20:58:18 21:02:28 79° 259° (WSW) 21:06:45 145.935
ZACube-1 27 May 21:13:18 21:17:17 44° 261° (W) 21:21:22 437.345
STRAND 1 27 May 21:32:20 21:35:17 16° 293° (WNW) 21:38:14 437.568
TIGRISAT 27 May 21:38:05 21:38:42 10° 93° (E) 21:39:20 435.000
UWE-3 27 May 21:42:31 21:43:24 11° 267° (W) 21:44:18 435.000/436.395/437.385
M-CUBED/EXP-1 PRIME 27 May 21:47:22 21:50:28 42° 289° (WNW) 21:53:35 437.505
PRISM 27 May 21:51:45 21:54:41 19° 96° (E) 21:57:37 437.425
UNISAT 6 27 May 22:07:08 22:11:05 27° 97° (E) 22:15:03 437.425
Oscar 11 27 May 22:08:11 22:10:33 14° 266° (W) 22:12:56 .
EO-88 27 May 22:14:00 22:17:36 62° 260° (W) 22:21:14 145.990 - 145.960
DELFI C3 27 May 22:30:32 22:33:55 27° 263° (W) 22:37:19 145.870
SO-50 27 May 22:30:36 22:34:50 36° 302° (WNW) 22:39:02 436.795
ESTCUBE 1 27 May 22:35:05 22:37:33 15° 68° (ENE) 22:40:01 437.505/2401.250
FO-29 27 May 22:36:40 22:43:25 65° 102° (ESE) 22:50:53 435.910
LO-87 27 May 22:53:05 22:56:23 38° 75° (ENE) 22:59:41 145.935 - 145.965
TIGRISAT 27 May 23:11:02 23:15:35 56° 285° (WNW) 23:20:10 435.000
VELOX 1 27 May 23:25:40 23:27:28 12° 68° (ENE) 23:29:17 145.980
PRISM 27 May 23:26:39 23:29:50 22° 289° (WNW) 23:33:01 437.425
UNISAT 6 27 May 23:44:00 23:47:35 22° 289° (WNW) 23:51:10 437.425
EO-79 27 May 23:55:17 23:58:49 25° 97° (E) 00:02:20 145.935-145.965
50 SAT 27 May 23:59:03 00:00:02 11° 70° (ENE) 00:01:01 437.505
ESTCUBE 1 28 May 00:09:42 00:13:56 40° 261° (W) 00:18:13 437.505/2401.250
RS-15 28 May 00:14:54 00:23:44 25° 102° (ESE) 00:32:45 29.354- 29.394
AIST 2D 28 May 00:15:54 00:19:27 62° 283° (WNW) 00:22:56 435.315
FO-29 28 May 00:23:25 00:27:58 19° 293° (WNW) 00:32:49 435.910
NANOSAT C BR1 28 May 00:38:59 00:43:15 84° 104° (ESE) 00:47:30 145.865
SPROUT 28 May 00:42:35 00:46:47 71° 259° (W) 00:51:01 437.525
POLYITAN 1 28 May 00:44:54 00:49:10 73° 283° (WNW) 00:53:26 437.675
DUCHIFAT 1 28 May 00:48:54 00:53:10 83° 280° (W) 00:57:24 145.980
YUBILEINY 28 May 00:50:35 00:59:00 56° 90° (E) 01:07:27 435.215
QB50P2 28 May 00:53:46 00:57:54 50° 285° (WNW) 01:02:02 145.880/145.840
VELOX 1 28 May 00:59:15 01:03:29 44° 260° (W) 01:07:42 145.980
BUGSAT 1 28 May 01:01:32 01:05:21 35° 99° (E) 01:09:12 437.445
UKube-1 28 May 01:19:14 01:23:29 63° 75° (ENE) 01:27:45 .
Oscar 19 28 May 01:27:17 01:31:22 23° 96° (E) 01:35:24 437.125/150
50 SAT 28 May 01:29:35 01:32:34 27° 262° (W) 01:35:34 437.505
DX 1 28 May 01:29:55 01:34:13 60° 259° (W) 01:38:30 434.975-435.025
EO-79 28 May 01:31:16 01:34:22 20° 289° (WNW) 01:37:28 145.935-145.965
JUGNU 28 May 01:58:11 02:02:26 21° 167° (SSE) 02:06:44 437.505
RS-15 28 May 02:22:57 02:34:56 75° 298° (WNW) 02:47:21 29.354- 29.394
ITUPSAT 1 28 May 02:30:34 02:34:39 29° 71° (ENE) 02:38:44 437.325
MOZHAYETS 4 28 May 02:33:18 02:36:00 16° 69° (ENE) 02:38:43
ISS 28 May 02:33:26 02:35:29 15° 36° (NE) 02:37:32 437.550
BUGSAT 1 28 May 02:38:14 02:40:21 14° 291° (WNW) 02:42:30 437.445
YUBILEINY 28 May 02:49:19 02:56:06 25° 286° (WNW) 03:02:57 435.215
Gurwin Techsat 1B 28 May 02:55:19 03:00:37 71° 285° (WNW) 03:05:54 435.225
BEESAT 28 May 03:02:20 03:07:02 70° 76° (ENE) 03:11:47 436.000
Oscar 19 28 May 03:06:08 03:10:36 30° 289° (WNW) 03:15:02 437.125/150
O/OREOS (USA 219) 28 May 03:08:47 03:13:05 40° 104° (ESE) 03:17:22 437.305
PCSat 28 May 03:17:54 03:19:56 12° 51° (NE) 03:21:59 145.827
Tancredo 1 28 May 03:22:17 03:25:20 82° 227° (SW) 03:28:22 437.200
JUGNU 28 May 03:45:53 03:50:57 29° 176° (S) 03:56:02 437.505
AO-7 28 May 04:07:28 04:15:44 61° 104° (ESE) 04:23:58 .
AO-85 28 May 04:08:03 04:12:21 73° 297° (WNW) 04:16:24 145.980
MOZHAYETS 4 28 May 04:08:31 04:12:47 38° 262° (W) 04:17:05
ITUPSAT 1 28 May 04:08:47 04:12:24 21° 264° (W) 04:16:01 437.325
ISS 28 May 04:09:01 04:12:04 37° 230° (SW) 04:15:06 437.550
ITAMSAT 1 28 May 04:10:25 04:15:39 79° 104° (ESE) 04:20:52 435.822/435.867
BEESAT 3 28 May 04:17:31 04:21:07 36° 112° (ESE) 04:24:47 437.485
SRMSAT 28 May 04:29:03 04:33:16 20° 166° (SSE) 04:37:29 437.500
RS-15 28 May 04:41:32 04:49:52 20° 322° (NW) 04:58:21 29.354- 29.394
KKS-1 28 May 04:49:41 04:54:06 79° 76° (ENE) 04:58:31 437.445
O/OREOS (USA 219) 28 May 04:50:01 04:52:37 15° 298° (WNW) 04:55:12 437.305
CUBESAT XI-V 28 May 04:58:18 05:02:59 70° 258° (WSW) 05:07:42 437.345
PCSat 28 May 04:58:28 05:03:54 78° 247° (WSW) 05:09:17 145.827
STARS 28 May 05:16:03 05:20:21 63° 76° (ENE) 05:24:39 437.465
JUGNU 28 May 05:34:32 05:39:31 27° 187° (S) 05:44:30 437.505
BEESAT 2 28 May 05:38:13 05:42:07 64° 298° (WNW) 05:46:06 435.950
DOVE 4 28 May 05:41:11 05:44:08 18° 96° (E) 05:47:11 437.250
BEESAT 3 28 May 05:56:42 05:58:48 14° 307° (NW) 06:00:57 437.485
AO-7 28 May 06:01:27 06:07:51 25° 299° (WNW) 06:14:15 .
SRMSAT 28 May 06:16:50 06:21:56 29° 176° (S) 06:27:01 437.500
CUTE-I 28 May 06:18:09 06:22:30 25° 97° (E) 06:26:50 437.470
LilacSat-2 28 May 06:21:39 06:25:03 29° 98° (E) 06:28:26 437.200
NO-84 28 May 06:52:32 06:56:24 31° 123° (ESE) 07:00:17 435.350 FM
XW-2D 28 May 06:53:29 06:57:20 85° 101° (E) 07:01:09 145.860 - 145.880
XW-2B 28 May 07:01:30 07:05:20 77° 284° (WNW) 07:09:09 145.730 - 145.750
STRAND 1 28 May 07:01:55 07:06:35 38° 72° (ENE) 07:11:16 437.568
NUDT-PHONESAT 28 May 07:06:28 07:10:15 87° 281° (WNW) 07:14:00 437.300
SO-50 28 May 07:06:57 07:11:11 39° 59° (ENE) 07:15:26 436.795
XW-2F 28 May 07:12:55 07:16:40 54° 284° (WNW) 07:20:22 145.980 - 146.000
XW-2C 28 May 07:15:22 07:19:04 47° 284° (WNW) 07:22:45 145.795 - 145.815
KAITUO 1B 28 May 07:17:31 07:21:15 58° 284° (WNW) 07:24:57 145.475/437.950
DOVE 4 28 May 07:18:15 07:21:46 26° 287° (WNW) 07:25:23 437.250
JUGNU 28 May 07:24:15 07:28:00 17° 196° (SSW) 07:31:46 437.505
SEEDS 28 May 07:41:49 07:44:56 20° 96° (E) 07:48:02 437.485
HO-68 28 May 07:43:03 07:49:50 43° 100° (E) 07:56:35 435.675
CUBEBUG 2 28 May 07:51:32 07:55:10 22° 96° (E) 07:58:50 437.445
LilacSat-2 28 May 07:57:05 07:59:00 13° 290° (WNW) 08:00:55 437.200
CUTE-I 28 May 07:57:49 08:02:27 31° 290° (WNW) 08:07:05 437.470
UWE-3 28 May 07:58:58 08:01:40 15° 94° (E) 08:04:24 435.000/436.395/437.385
